This is the latest recevied weather packets stored in our database for station/object EA1CLT-10. If no packets are shown the sender has not sent any weather packets the latest 1 day(s).
| Time | Temp. | Humidity | Pressure | Rain* | Wind** | Luminosity | Snow |
|---|---|---|---|---|---|---|---|
| 1788630406 | 31.67° C | 41% | 1012.8 hPa | - | - | - | - |
| 1788629206 | 32.22° C | 41% | 1012.5 hPa | - | - | - | - |
| 1788628006 | 32.22° C | 41% | 1012 hPa | - | - | - | - |
| 1788626806 | 32.22° C | 41% | 1012.7 hPa | - | - | - | - |
| 1788625605 | 32.22° C | 41% | 1012.5 hPa | - | - | - | - |
| 1788624405 | 32.22° C | 41% | 1012.4 hPa | - | - | - | - |
| 1788623205 | 32.22° C | 41% | 1012.3 hPa | - | - | - | - |
| 1788622005 | 32.22° C | 41% | 1012 hPa | - | - | - | - |
| 1788620805 | 32.22° C | 42% | 1011.7 hPa | - | - | - | - |
| 1788619605 | 32.78° C | 41% | 1011.4 hPa | - | - | - | - |
| 1788618405 | 32.22° C | 43% | 1011.1 hPa | - | - | - | - |
| 1788617205 | 31.67° C | 43% | 1011.3 hPa | - | - | - | - |
| 1788616005 | 31.67° C | 41% | 1011.3 hPa | - | - | - | - |
| 1788614805 | 31.67° C | 43% | 1011.3 hPa | - | - | - | - |
| 1788613605 | 31.67° C | 43% | 1011.6 hPa | - | - | - | - |
| 1788612404 | 31.11° C | 44% | 1011.8 hPa | - | - | - | - |
| 1788611204 | 31.11° C | 48% | 1011.8 hPa | - | - | - | - |
| 1788610004 | 30.56° C | 48% | 1012.1 hPa | - | - | - | - |
| 1788608804 | 30° C | 47% | 1012.3 hPa | - | - | - | - |
| 1788607604 | 30° C | 47% | 1012.6 hPa | - | - | - | - |
| 1788606404 | 29.44° C | 47% | 1012.8 hPa | - | - | - | - |
| 1788605204 | 29.44° C | 48% | 1013 hPa | - | - | - | - |
| 1788604004 | 28.89° C | 48% | 1013.3 hPa | - | - | - | - |
| 1788602804 | 28.89° C | 49% | 1013.4 hPa | - | - | - | - |
| 1788601604 | 28.89° C | 50% | 1013.5 hPa | - | - | - | - |
* Rain since midnight (hover to see other rain measurements)
** Current wind speed in m/s (hover to see current wind gust speed)